RH
60 17 16 39 15 7 8 12 16 16 12 8 8 14 13 12 12 10 8 6 11 28 23 13 10 12 14 22 17 23 27 29 31 28 21 17 18 15 13 13 13 14 15 16
65 15 26 33 9 7 8 13 18 16 11 6 8 9 10 11 15 9 7 5 21 29 23 19 16 15 22 20 20 28 30 30 30 27 22 21 20 15 14 15 16 16 16 16
54 17 32 22 7 8 9 15 18 15 10 6 7 8 10 10 10 8 6 5 22 23 20 19 18 20 25 18 24 30 28 30 32 26 25 24 19 17 17 16 17 17 18 16
32 27 34 14 7 8 8 13 17 14 8 7 8 8 9 10 10 7 5 4 9 25 22 21 21 24 24 24 29 32 28 27 26 26 25 23 20 18 18 19 19 19 18 17
29 38 30 11 6 8 9 13 17 14 11 11 8 8 9 8 8 6 5 5 5 28 26 25 21 26 25 29 32 33 28 28 26 22 20 20 21 21 21 21 21 21 20 17
37 41 23 9 7 8 10 14 16 15 11 9 8 9 9 8 7 6 5 5 5 9 32 25 22 23 24 29 31 34 31 26 23 19 19 19 19 21 21 22 21 22 21 19
39 41 15 8 7 8 11 14 16 15 12 10 10 10 9 8 8 7 5 5 5 5 13 26 29 18 16 20 29 30 34 34 27 19 18 17 18 20 22 22 21 21 21 20
48 30 11 8 7 7 10 13 15 15 14 13 12 10 9 7 6 7 6 5 5 5 5 12 24 32 27 19 19 27 30 31 30 25 19 17 17 21 23 23 22 22 23 23
50 16 11 8 7 7 9 10 12 13 13 14 12 10 9 9 8 8 7 6 5 5 4 4 6 12 22 29 26 20 22 28 31 28 26 21 21 23 24 24 21 22 24 23
39 14 12 8 7 7 8 9 10 10 10 10 10 10 10 8 8 8 8 7 6 5 4 5 5 6 8 14 22 30 26 23 25 29 25 19 24 24 25 23 23 23 25 24
31 16 13 10 8 8 8 9 8 9 10 10 9 10 11 10 10 9 8 8 7 6 5 5 5 6 7 9 12 24 31 27 24 24 24 18 23 22 24 24 24 25 26 24
94 26 15 12 9 8 8 8 8 7 7 8 8 9 11 11 10 9 9 8 8 6 5 4 4 5 6 10 13 26 34 50 44 37 30 27 26 24 23 23 24 27 26 26
67 85 80 43 13 9 8 8 8 7 7 7 7 8 8 8 7 6 7 8 8 6 5 5 6 7 11 15 16 23 36 50 43 41 40 36 30 29 27 27 30 29 27 33
86 66 46 42 42 22 15 10 8 7 7 7 7 7 6 6 6 6 6 7 7 6 6 7 8 12 16 18 19 20 34 46 48 36 42 38 35 35 37 32 28 28 36 43
88 76 66 58 50 42 34 27 16 10 9 7 7 6 6 6 6 6 6 6 7 9 10 13 18 16 17 12 12 16 38 59 54 44 44 34 33 35 34 37 41 41 43 44
100 98 87 78 65 56 48 39 33 29 27 22 19 19 18 19 20 21 22 23 23 21 19 18 17 23 23 13 14 28 54 50 46 36 40 38 38 46 52 50 47 42 45 58
90 92 97 96 87 78 72 69 66 60 50 43 41 37 32 26 26 28 30 31 31 30 29 27 28 33 33 24 24 74 83 75 70 62 59 55 65 58 48 42 59 75 71 74
54 58 60 64 64 64 55 52 51 44 39 37 31 32 41 44 43 41 41 39 36 33 36 37 47 37 42 30 68 73 69 62 62 70 63 59 48 37 46 83 78 77 76 83
29 30 31 29 27 27 34 38 38 34 31 24 21 26 33 37 41 45 48 47 43 39 35 48 48 37 32 54 55 55 58 51 42 36 34 49 66 64 68 89 96 97 97 78
90 80 56 35 33 35 31 31 31 30 26 19 17 20 20 28 29 29 31 33 30 25 26 30 24 22 27 34 35 57 78 82 70 68 82 80 80 87 96 100 100 100 94 100
85 85 78 58 42 41 42 52 57 51 42 33 26 24 25 26 31 55 81 75 59 46 42 49 54 51 61 70 80 82 81 84 86 88 84 80 82 95 98 98 93 99 100 100
63 49 49 45 42 39 44 44 42 36 28 29 49 46 39 52 79 97 88 81 70 63 66 70 54 50 62 73 73 75 76 82 86 85 84 84 95 96 84 97 100 100 100 100
72 73 79 81 71 58 54 45 42 55 74 81 92 98 100 100 100 100 99 98 92 86 78 68 58 61 66 69 72 72 72 71 69 70 69 68 80 99 100 100 100 100 100 100
100 100 100 100 83 75 70 75 80 78 81 85 90 100 99 100 100 100 99 100 99 92 79 67 68 73 74 70 70 71 69 70 71 73 79 96 100 100 100 100 100 100 100 100
98 100 100 89 87 84 82 81 82 80 83 86 88 92 90 87 88 86 88 92 88 83 79 79 76 73 85 87 83 77 73 76 88 100 100 100 100 100 100 100 100 100 100 100
100 98 98 96 98 100 100 98 96 95 95 90 88 89 88 86 83 75 73 78 75 86 95 97 92 86 85 95 98 99 99 97 99 98 98 100 100 100 100 100 100 98 96 94
91 96 100 100 98 98 100 100 100 97 94 94 94 91 96 97 98 99 100 100 100 100 100 100 100 100 100 100 100 100 100 100 100 100 100 100 100 100 100 93 88 77 55 37
Wind_Speed
42 39 39 40 39 45 49 51 47 43 42 41 39 34 28 22 17 12 6 4 4 9 10 13 16 17 17 17 18 16 15 16 16 12 10 9 6 3 3 7 10 11 13 13
40 39 41 41 43 48 52 52 49 45 43 42 38 33 27 22 16 10 5 3 5 9 12 15 17 18 20 19 16 16 17 16 15 13 12 10 9 8 8 9 9 11 16 17
40 40 42 41 46 51 55 54 51 47 44 42 37 34 28 22 15 10 7 4 5 7 12 16 18 20 19 18 17 18 18 16 15 14 12 13 13 13 13 14 14 15 19 21
40 41 43 42 48 54 56 54 51 46 44 42 38 34 29 22 17 11 8 4 6 7 9 13 16 18 17 17 18 19 18 17 16 14 16 16 17 17 18 18 19 20 22 22
40 42 43 42 49 56 56 54 51 47 45 43 40 36 29 22 18 12 9 7 4 9 9 12 16 18 18 19 19 21 20 19 19 19 20 20 20 21 24 23 25 25 27 27
40 42 41 44 52 57 56 54 51 48 46 44 41 35 29 24 20 14 12 10 6 8 12 12 16 18 20 22 22 24 25 24 24 24 24 26 24 26 29 29 28 31 32 32
43 40 40 45 52 56 55 52 50 48 46 44 40 37 31 26 22 19 16 13 10 9 14 18 18 18 20 23 24 25 27 28 29 29 30 32 28 30 33 33 32 34 36 36
39 37 40 44 52 56 54 52 50 47 45 42 42 38 33 31 27 23 18 17 16 14 14 18 21 21 21 23 25 27 29 31 33 35 34 37 33 31 36 38 37 36 39 39
35 36 40 44 51 55 54 52 49 47 44 44 42 39 35 34 30 26 24 23 22 20 19 19 21 24 25 26 26 29 32 34 36 38 40 42 37 36 40 42 40 41 42 42
33 35 38 44 49 52 54 53 51 48 46 45 42 40 38 36 32 30 28 27 26 26 25 24 24 25 27 29 29 28 33 37 39 41 44 45 40 42 43 44 44 42 43 45
30 33 37 42 45 49 50 52 51 49 48 45 43 41 40 37 36 35 33 32 31 32 32 31 30 33 32 32 33 34 36 39 39 42 44 47 43 45 47 45 44 45 46 47
29 31 36 40 42 46 48 49 47 47 46 44 43 42 40 39 39 38 38 37 35 37 36 37 37 39 39 38 39 37 39 40 41 42 41 42 44 46 46 46 47 48 48 46
34 30 30 33 38 41 43 45 45 45 45 45 44 43 42 42 41 42 41 41 41 42 43 42 43 43 42 42 42 42 40 42 42 41 38 40 45 45 45 47 48 48 48 49
31 30 30 33 33 35 37 39 42 43 43 44 44 43 43 43 43 44 45 45 45 45 44 44 43 43 45 43 44 45 42 40 39 43 40 44 43 43 44 46 47 48 50 52
32 30 29 29 30 31 32 34 36 38 39 40 40 41 42 42 42 42 43 43 43 41 41 40 40 42 42 44 46 41 37 37 39 40 41 44 43 43 44 46 48 50 52 53
33 33 31 29 28 28 28 29 30 30 31 32 33 34 34 34 35 35 35 35 34 34 34 35 37 34 37 41 39 33 31 35 39 41 42 42 43 44 45 48 50 51 52 53
33 31 31 30 30 30 29 28 27 28 29 30 30 31 31 31 31 31 31 32 31 32 33 35 35 34 37 40 38 26 31 33 36 40 42 43 43 46 48 48 49 51 52 53
36 35 34 32 32 31 31 29 29 29 30 31 32 32 29 29 30 31 31 31 32 34 35 36 35 37 38 40 28 35 37 41 41 43 46 46 48 48 47 46 47 49 50 52
36 37 37 35 35 35 34 32 31 31 32 33 34 31 28 29 30 31 32 33 34 36 36 34 36 38 39 35 36 39 42 44 45 46 46 46 46 47 48 49 51 50 55 57
37 37 37 35 35 35 34 33 34 34 35 36 34 31 32 30 29 30 33 35 37 38 37 37 39 39 38 38 38 40 43 44 44 45 44 44 45 47 49 51 52 47 56 58
35 34 37 38 37 36 37 39 42 41 40 38 36 32 31 30 31 31 34 37 37 39 38 37 36 35 35 38 38 38 38 38 40 43 47 49 49 49 50 53 56 57 56 57
32 32 32 34 35 35 39 41 41 39 38 36 33 32 32 34 33 35 36 36 38 39 39 41 42 41 40 40 41 43 44 44 46 48 50 51 49 50 54 53 53 59 59 59
34 34 34 34 36 39 42 41 40 37 35 35 32 31 33 36 37 39 39 41 42 43 44 46 47 47 47 48 49 50 51 53 55 57 59 57 54 51 49 50 55 58 63 68
36 36 36 37 40 42 42 39 37 37 36 37 36 35 35 35 36 39 41 43 44 47 48 49 48 50 53 56 58 59 59 59 59 56 54 55 56 54 52 56 62 66 62 67
38 38 39 41 40 41 41 41 41 42 41 41 42 43 43 42 44 46 47 49 51 53 54 55 56 57 57 56 56 56 56 55 54 54 53 50 49 52 56 60 62 63 62 66
42 43 42 43 43 43 44 46 48 48 49 49 49 48 50 51 52 52 54 55 56 54 52 52 52 51 49 50 52 53 52 51 48 47 48 50 52 55 57 58 61 64 64 62
47 45 47 51 49 47 47 49 49 50 51 51 52 52 51 52 53 52 49 49 48 46 45 46 46 46 46 46 45 43 42 43 45 50 56 59 58 57 59 60 58 58 60 62
Wind_Direction
196 201 198 198 195 185 179 176 179 184 185 185 184 186 184 182 188 208 226 252 213 216 214 207 208 201 196 189 185 183 180 178 173 184 185 186 198 210 290 311 318 325 325 334
198 199 197 198 190 184 179 179 183 187 189 189 189 192 193 192 200 223 252 255 198 200 185 188 193 198 192 187 190 187 182 182 187 200 207 218 236 256 286 294 303 311 315 327
198 199 198 196 185 183 180 182 188 190 191 192 195 197 196 204 215 222 247 246 209 184 183 190 190 189 195 196 195 193 191 194 204 214 226 230 241 262 278 278 293 311 318 324
195 199 198 193 182 183 183 186 192 192 192 195 200 194 196 204 221 228 247 245 213 197 189 201 194 196 201 208 204 202 207 209 217 227 239 246 258 268 274 284 300 309 315 318
193 199 196 189 180 185 185 189 193 194 195 199 205 202 204 209 220 225 241 247 225 216 198 202 206 207 212 214 215 215 218 225 234 242 250 257 266 276 283 292 299 305 311 316
196 197 192 188 182 187 188 192 195 197 199 203 205 208 214 216 222 226 239 254 264 237 220 218 224 220 221 219 222 222 227 234 243 250 257 262 267 278 282 289 297 303 307 313
198 193 191 188 184 188 192 194 197 201 203 208 213 216 216 222 226 231 238 248 255 256 233 229 234 238 236 234 234 236 240 246 253 258 260 265 272 278 284 289 294 298 302 307
195 192 190 189 186 190 194 196 201 204 207 211 218 220 223 226 231 236 247 255 256 254 249 242 241 246 252 252 248 247 249 253 259 264 268 273 275 281 283 289 294 297 300 305
192 191 190 190 188 191 198 199 203 207 210 214 219 224 226 229 233 240 247 255 260 263 264 265 258 250 247 249 255 258 259 260 263 267 269 272 276 280 284 287 295 295 300 304
192 191 190 191 190 193 200 205 206 210 213 219 222 225 230 234 240 245 250 255 259 266 269 271 273 270 266 260 259 256 258 259 261 263 268 272 277 281 285 289 290 296 298 302
191 190 190 193 192 194 199 209 211 215 218 224 227 230 231 236 241 247 251 255 260 262 266 269 271 273 273 273 269 263 262 264 267 269 271 275 279 282 284 287 291 293 297 301
184 191 193 194 196 197 200 209 214 218 222 226 230 234 236 238 243 249 255 259 263 268 272 272 272 273 276 278 274 272 273 271 274 273 276 280 282 281 285 288 291 293 296 298
185 188 188 195 202 203 204 209 215 219 223 228 231 235 239 243 248 252 256 259 262 265 267 269 271 273 274 275 276 277 277 277 279 281 282 280 280 282 286 287 289 292 294 296
188 190 196 197 202 206 209 214 218 223 227 230 234 237 241 246 250 254 259 262 264 266 269 271 274 277 277 279 279 279 280 282 282 280 283 279 282 284 285 288 290 291 294 299
188 191 194 197 201 206 212 218 223 227 231 236 239 242 245 249 253 257 261 264 266 270 273 277 277 277 280 280 280 283 283 283 282 282 281 282 286 287 289 291 294 298 299 300
197 197 198 200 203 206 209 214 219 225 231 237 241 245 249 252 254 258 261 265 267 269 271 272 273 276 277 281 283 285 284 279 277 280 282 287 288 290 291 293 294 296 298 298
206 206 208 210 212 215 219 224 227 231 235 239 244 249 254 259 262 264 267 268 271 272 273 274 276 275 274 280 286 292 277 274 278 282 285 287 288 289 291 292 294 296 298 297
209 212 215 216 220 223 224 227 231 236 240 243 247 252 257 265 267 269 272 271 271 271 272 273 272 275 275 281 290 279 281 282 286 287 288 289 290 291 290 292 296 298 298 297
214 218 221 223 225 229 232 234 238 242 246 249 252 256 257 258 264 266 267 269 270 271 274 273 274 278 283 284 281 282 283 284 285 286 289 290 290 290 287 288 295 297 296 299
219 223 225 226 229 233 236 238 241 245 248 251 254 255 259 259 260 263 268 270 270 273 273 275 278 282 285 284 284 285 286 286 285 285 287 293 295 292 289 289 292 291 294 300
221 225 228 230 231 234 237 244 248 249 249 252 255 259 263 266 266 268 266 267 268 270 271 272 277 281 280 280 280 281 282 281 280 283 288 291 292 290 289 290 296 299 299 289
220 225 227 230 232 235 238 239 243 246 249 253 260 260 259 261 263 264 263 263 265 267 269 272 276 279 280 280 281 282 283 282 286 289 292 293 291 289 294 300 297 284 273 272
224 228 230 232 232 235 236 240 243 249 258 261 259 256 256 257 260 263 267 267 267 271 275 278 281 284 284 283 284 285 286 287 287 287 289 293 296 300 290 279 272 273 276 279
233 234 239 242 243 240 243 247 252 255 256 258 258 261 265 266 267 268 271 273 276 278 280 283 283 284 283 283 285 286 288 291 292 293 293 294 296 293 285 278 274 269 275 289
242 240 238 242 246 248 249 252 254 256 257 256 258 262 266 268 270 272 273 274 275 278 281 283 284 285 288 289 290 291 293 293 292 292 291 290 286 275 274 277 279 281 288 295
242 244 243 245 246 246 248 250 252 255 257 258 261 265 269 271 275 278 282 284 284 286 287 288 289 288 288 287 285 285 285 285 286 286 285 284 283 282 281 281 286 293 299 299
237 240 243 245 247 249 250 252 254 256 259 263 265 266 269 270 272 275 275 276 280 282 281 280 279 279 280 280 280 281 282 281 279 278 276 276 279 284 292 299 299 297 296 295